Home   Weather   Punta Gorda   Past weeks
Flag for Belize

Past Weather in Punta Gorda, Belize — Yesterday and Last 2 Weeks

Now
90 °F

Scattered clouds.


Feels Like: 108 °F
Forecast: 91 / 75 °F
Wind: 7 mph from North

Location: Puerto Barrios Airport

Current Time: Oct 18, 2019 at 1:13:45 pm

Latest Report: Oct 18, 2019 at 12:00 pm


Visibility: N/A

Pressure: 29.80 "Hg

Humidity: 75%

Dew Point: 81 °F

Location of Punta GordaLocation

Past Weather in Punta Gorda — Graph

°F

Punta Gorda Temperature Yesterday

Maximum temperature yesterday: 91 °F (at 2:00 pm)
Minimum temperature yesterday: 77 °F (at 4:00 am)
Average temperature yesterday: 83 °F

High & Low Weather Summary for the Past Weeks

 TemperatureHumidityPressure
High95 °F (Oct 16, 12:00 pm)100% (Oct 4, 4:00 am)29.98 "Hg (Oct 4, 4:00 am)
Low72 °F (Oct 14, 4:00 am)53% (Oct 16, 11:00 am)29.74 "Hg (Oct 6, 3:00 pm)
Average81 °F87%29.84 "Hg
* Reported Oct 3 12:00 pm — Oct 18 12:00 pm, Punta Gorda. Weather by CustomWeather, © 2019

Note: Actual official high and low records may vary slightly from our data, if they occured in-between our weather recording intervals... More about our weather records

Advertising

Punta Gorda Weather History for the Previous 24 Hours

Scroll right to see more
 ConditionsComfort  
Time TempWeatherWind HumidityBarometerVisibility
12:00 pm
Fri, Oct 18
90 °FScattered clouds.7 mph75%29.80 "HgN/A
11:00 am88 °FScattered clouds.7 mph79%29.86 "HgN/A
10:00 am88 °FScattered clouds.5 mph79%29.89 "HgN/A
9:00 am86 °FScattered clouds.No wind79%29.86 "HgN/A
8:00 am84 °FSunny.No wind84%29.86 "Hg10 mi
7:00 am79 °FScattered clouds.No wind94%29.86 "HgN/A
6:00 am77 °FPartly sunny.No wind94%29.83 "HgN/A
5:00 am77 °FPassing clouds.No wind100%29.80 "Hg6 mi
4:00 am77 °FPassing clouds.No wind100%29.80 "HgN/A
3:00 am77 °FPassing clouds.No wind100%29.80 "HgN/A
2:00 am77 °FPassing clouds.No wind94%29.83 "HgN/A
1:00 am77 °FPassing clouds.No wind100%29.83 "HgN/A
12:00 am79 °FClear.No wind94%29.86 "Hg10 mi
11:00 pm
Thu, Oct 17
77 °FClear.No wind100%29.86 "Hg10 mi
10:00 pm79 °FClear.No wind94%29.86 "Hg10 mi
9:00 pm79 °FClear.No wind100%29.86 "Hg10 mi
8:00 pm81 °FClear.No wind94%29.83 "Hg10 mi
7:00 pm81 °FClear.No wind89%29.80 "Hg10 mi
6:00 pm84 °FClear.No wind79%29.80 "Hg10 mi
5:00 pm88 °FSunny.No wind66%29.77 "Hg10 mi
4:00 pm91 °FSunny.5 mph63%29.77 "Hg10 mi
3:00 pm91 °FRain. Scattered clouds.5 mph67%29.77 "HgN/A
2:00 pm91 °FScattered clouds.5 mph59%29.80 "HgN/A
1:00 pm90 °FScattered clouds.7 mph67%29.83 "HgN/A
Weather by CustomWeather, © 2019

See weather overview